Voltar ao catálogo

STARLINK-34899

AtivoComunicaçõesVLEO
NORAD 65323·PAYLOAD·🇺🇸 United States

Lançado Aug 27, 2025 de Cape Canaveral Space Force Station

Loading…

Próximas Passagens (próximas 24 horas)

TLE

AtualizadoSource: CelesTrak SupGP

Época: Sep 14, 2026, 15:41 UTC

1 65323C 25189A   26257.65395833 -.00056746  00000+0 -18251-2 0  2573
2 65323  53.1602  47.4413 0001248  87.4855 146.7042 15.31724881    18

Acompanhe STARLINK-34899 em tempo real com AllMySat

Download on the App Store